Temperature
19 18 18 18 17 17 16 16 16 15 15 15 15 15 14 15 15 14 14 14 14 14 14 14 14 14 15 15 15 16 16 16 16 16 16 15 15 15 15 15 15 15 15
19 18 18 18 17 17 16 16 16 15 15 15 15 14 14 14 14 14 14 14 14 13 13 13 14 14 14 14 15 15 15 15 15 15 15 15 15 15 15 15 15 15 15
19 18 18 18 17 17 17 16 16 16 15 15 15 15 15 14 14 14 14 14 13 13 13 13 13 13 14 14 14 14 15 15 15 15 15 15 15 14 15 14 14 14 15
19 19 18 18 18 17 17 16 16 16 16 15 15 15 15 15 14 14 14 14 13 13 13 13 13 13 14 14 14 14 15 15 15 15 15 15 15 14 14 14 14 14 14
19 18 18 18 18 17 17 16 16 16 16 16 15 15 15 15 14 14 14 14 14 14 13 13 13 13 14 14 14 14 14 14 14 14 14 14 14 14 14 14 14 14 14
19 18 18 18 17 17 17 16 16 16 16 15 15 15 15 15 15 14 14 14 14 14 14 14 14 14 14 14 14 14 14 14 14 14 14 14 14 14 14 14 14 13 13
19 18 18 17 17 17 16 16 16 15 15 15 15 15 15 15 15 15 15 14 14 14 14 14 14 14 14 14 14 14 14 14 14 14 14 14 14 14 14 14 14 14 14
18 18 17 17 16 16 15 15 15 15 15 15 15 15 15 15 15 15 15 15 14 14 14 14 14 14 14 14 14 14 14 14 14 14 14 14 14 14 14 14 14 14 13
17 16 16 16 15 15 15 15 15 15 15 15 15 15 15 15 15 15 15 15 15 15 15 14 15 15 14 14 14 14 14 14 14 14 14 14 14 14 14 14 13 13 13
14 14 14 14 14 14 14 14 14 14 14 14 14 15 15 14 15 15 15 15 15 15 14 14 15 14 14 14 14 14 14 14 14 14 14 14 14 14 14 14 14 13 13
13 13 13 13 13 13 13 13 13 13 13 14 14 14 14 14 14 14 14 14 14 14 14 14 14 14 14 14 14 14 14 14 13 13 13 13 14 14 14 14 13 13 13
12 12 12 12 12 12 12 12 12 12 12 13 13 13 13 14 14 14 14 14 14 14 14 14 14 14 14 14 14 14 13 13 13 13 13 13 13 13 13 13 13 12 12
12 12 12 12 11 11 11 11 11 11 12 12 12 12 13 13 13 13 13 13 13 13 13 13 13 13 13 13 13 13 13 13 13 13 13 13 13 13 12 12 12 12 12
13 12 12 12 11 11 11 11 11 11 11 12 12 12 12 12 12 12 12 12 12 12 13 13 13 13 13 13 13 13 13 13 12 12 12 12 12 12 12 12 12 12 11
13 13 12 12 11 11 11 11 11 11 11 11 12 12 12 12 12 12 12 12 12 12 12 12 12 12 12 12 12 12 12 12 12 12 12 12 12 12 11 11 11 11 11
13 12 12 12 11 11 11 11 11 11 11 11 11 12 12 12 12 12 12 12 12 12 11 11 11 12 12 12 11 11 11 12 11 11 11 11 11 11 11 11 11 11 11
13 12 12 12 12 11 11 11 11 11 11 11 11 11 11 11 11 11 11 11 11 11 11 11 11 11 11 11 11 11 11 11 11 11 11 11 11 10 10 10 11 10 10
13 12 12 12 11 11 11 11 11 11 11 11 11 11 11 11 11 11 11 11 11 11 11 11 11 11 11 10 10 10 10 10 10 10 10 10 10 10 10 10 10 10 10
13 12 12 12 11 11 11 11 11 11 10 10 10 10 10 10 10 10 10 10 10 10 10 10 10 10 10 10 10 10 10 10 10 10 10 10 10 10 10 10 10 10 10
13 12 12 12 12 12 11 11 11 11 10 10 10 10 9 10 10 10 10 10 10 10 10 10 10 10 10 10 10 9 9 9 9 9 9 9 9 9 9 9 9 9 9
13 12 12 12 12 12 11 11 11 11 10 10 10 10 10 10 10 9 9 10 10 10 10 10 10 10 10 9 9 9 9 9 9 9 9 9 9 9 9 9 9 9 9
13 12 12 11 11 11 11 11 11 11 10 10 10 10 10 10 10 10 10 10 10 10 9 9 9 9 9 9 9 9 9 9 9 9 9 9 9 9 9 8 8 8 8
13 12 12 11 11 11 11 11 11 11 10 10 10 10 10 10 10 10 10 10 9 9 9 9 9 9 9 9 9 9 9 9 8 8 8 8 8 8 8 8 8 8 8
13 12 12 11 11 11 11 11 11 11 11 10 10 10 10 10 10 9 9 9 9 9 9 9 9 8 8 8 8 8 8 8 8 8 8 8 8 8 8 8 8 8 8
12 12 11 11 11 11 11 11 11 11 10 10 10 10 10 9 9 9 9 9 9 9 8 8 8 8 8 8 8 8 8 8 8 8 8 8 8 8 8 7 7 7 7
12 11 11 11 11 11 11 11 11 11 10 10 10 10 9 9 9 9 8 8 9 9 8 8 8 8 8 8 8 8 8 8 8 8 7 7 7 7 7 7 7 7 7
Wind_Speed
7 5 6 3 3 4 3 3 2 3 5 4 4 4 4 4 3 3 3 4 5 5 5 5 4 2 1 1 2 1 1 1 3 4 4 5 7 8 6 8 14 13 11
7 6 6 6 5 4 5 6 5 5 5 5 6 6 5 5 5 5 5 5 5 6 6 6 5 4 3 1 1 1 2 2 2 4 4 3 6 8 8 7 9 11 13
7 6 6 6 7 6 5 6 6 6 6 6 6 7 7 7 6 6 6 5 6 6 7 7 7 6 5 1 0 1 2 3 2 3 4 3 4 7 8 7 6 5 12
8 6 6 6 7 6 5 5 5 6 7 7 7 8 8 8 8 7 7 6 6 6 6 7 7 7 6 5 3 3 2 3 4 3 4 3 4 4 7 6 5 5 5
9 7 6 6 6 6 5 5 4 5 5 6 6 7 8 8 8 9 8 8 7 7 7 8 8 9 10 8 6 5 4 3 4 4 5 4 4 4 6 6 6 5 5
9 8 7 5 3 5 4 5 6 5 5 4 5 6 7 7 10 12 8 7 8 8 9 9 10 12 14 16 15 12 9 7 6 6 6 6 8 7 5 5 6 5 5
4 4 4 3 2 2 3 5 5 5 5 4 4 5 6 6 11 13 11 5 5 6 8 8 8 10 14 11 14 17 15 15 14 9 8 9 8 8 9 8 8 8 6
8 8 7 5 4 3 4 4 5 5 6 6 6 6 6 8 12 12 10 6 5 6 6 7 7 7 9 10 9 9 9 10 11 10 9 8 7 7 9 11 10 7 5
9 9 9 8 7 6 5 5 5 5 5 6 6 7 6 7 12 12 10 4 5 7 7 6 4 3 4 9 7 6 6 5 4 5 4 3 3 4 5 6 7 6 5
8 8 8 7 6 6 6 5 5 5 4 3 5 5 6 7 12 12 10 4 4 5 4 1 2 3 4 5 4 4 5 4 4 4 3 4 4 5 6 7 7 6 5
6 5 5 5 5 5 5 5 5 4 3 2 2 2 3 4 9 11 10 3 1 2 2 1 3 6 5 4 2 1 2 2 3 4 4 4 3 3 4 4 4 4 5
4 3 3 3 5 5 5 5 4 4 3 3 2 2 1 3 5 6 7 4 1 2 2 1 3 6 4 3 2 3 2 1 1 2 2 2 3 3 3 4 2 1 2
3 3 3 4 4 5 6 5 4 3 3 2 2 1 1 2 4 5 4 2 1 1 1 3 6 6 4 3 3 4 2 1 2 1 2 2 2 3 2 2 1 0 1
3 3 5 6 6 7 6 7 6 6 5 3 3 1 0 2 2 3 3 3 3 3 2 4 5 4 1 1 4 3 3 2 2 1 2 1 1 1 2 2 2 2 1
4 5 6 5 5 5 6 6 6 7 6 5 5 4 3 3 4 4 2 1 1 1 2 3 2 2 2 3 3 3 2 2 1 1 1 1 1 2 2 2 2 3 3
5 5 4 3 3 2 4 5 10 9 11 13 12 9 6 7 5 5 6 5 5 3 2 1 2 3 3 3 3 2 2 2 2 1 1 2 2 3 3 3 3 4 4
4 4 3 3 1 0 1 3 3 4 8 12 13 12 10 8 8 7 6 6 6 4 1 0 1 1 0 0 0 0 0 1 1 1 2 2 2 2 3 3 4 4 5
3 3 2 2 3 2 2 2 2 3 2 4 6 9 9 9 8 7 5 3 3 3 2 3 3 3 3 3 2 2 1 1 0 1 2 3 3 3 3 4 4 5 5
4 4 3 3 2 1 2 3 3 4 4 3 2 3 4 4 3 4 5 3 3 3 3 4 4 4 3 3 3 3 2 2 2 1 2 2 2 2 3 3 4 5 5
4 3 3 3 2 2 2 3 3 3 4 3 3 3 1 1 1 2 3 3 4 3 4 4 4 4 4 4 4 3 3 3 3 3 2 2 2 2 3 3 3 3 4
4 5 1 3 2 3 3 3 4 4 4 4 4 4 5 3 3 3 3 4 4 4 4 3 3 4 4 3 3 4 4 3 3 3 3 3 3 2 2 3 3 3 3
2 4 3 0 2 4 3 3 4 4 4 5 3 3 4 3 4 4 4 4 4 4 4 3 3 3 3 4 4 4 4 4 4 4 4 4 3 3 3 3 4 4 4
1 3 3 2 3 3 1 2 3 3 4 4 4 3 2 3 4 5 5 5 5 5 5 6 6 6 5 5 5 5 5 5 5 6 5 5 4 4 4 4 4 4 4
2 3 3 2 2 2 2 2 3 4 4 4 3 3 3 4 4 5 5 4 5 6 5 5 6 8 9 7 7 8 7 8 9 6 7 6 5 5 4 4 4 4 3
3 4 3 2 2 2 2 3 4 4 4 4 4 4 4 5 5 5 5 5 6 7 7 6 7 8 10 10 10 10 13 13 11 8 6 5 5 5 4 4 3 3 3
4 4 3 2 2 2 2 3 4 4 4 4 4 4 5 5 5 5 5 6 6 6 6 5 8 10 12 11 12 14 14 13 12 10 6 3 4 3 3 3 3 3 3
Wind_Direction
186 171 136 163 139 149 174 126 132 139 140 165 163 164 149 146 152 161 176 179 182 175 177 172 169 152 197 291 330 332 298 184 207 226 209 176 156 156 158 159 159 167 170
176 166 167 169 163 191 183 169 185 170 165 180 162 161 156 156 157 161 170 173 175 168 161 150 141 127 103 36 353 313 292 278 231 225 213 191 170 166 163 183 182 187 173
167 175 175 178 184 204 200 178 183 171 178 183 169 170 168 165 163 160 155 155 156 157 155 151 148 139 130 133 275 286 294 295 278 233 218 205 191 174 165 191 195 179 172
162 184 199 206 187 194 203 177 184 191 190 193 184 174 169 169 171 170 169 169 167 167 169 170 171 171 169 183 214 241 259 280 283 259 228 211 216 186 167 180 196 194 172
160 186 208 226 193 182 192 175 199 211 211 202 184 177 171 172 182 179 179 183 183 188 193 195 197 199 201 203 212 218 228 244 262 256 238 211 208 199 193 182 188 188 202
164 187 204 224 206 178 192 192 207 209 223 215 190 179 175 185 177 177 184 192 195 200 205 208 210 212 220 222 227 230 226 232 240 243 238 222 214 209 204 192 181 178 210
150 164 164 183 234 214 226 227 216 210 215 221 209 192 186 175 173 179 193 210 224 219 215 214 218 217 214 218 227 233 240 243 240 240 245 236 221 207 202 205 200 197 206
44 37 33 25 1 325 288 267 241 228 216 212 211 205 197 181 179 180 185 214 253 258 243 227 218 219 205 203 211 218 224 231 232 228 233 237 230 213 206 207 204 205 217
37 26 22 17 7 352 330 308 286 267 245 217 212 211 205 184 182 181 174 205 244 259 259 247 233 221 197 192 199 220 230 235 221 203 205 190 193 212 195 180 185 184 195
39 34 26 20 3 353 342 329 316 297 277 249 224 209 203 190 186 184 184 206 239 262 273 269 117 107 101 157 196 216 223 222 182 171 186 188 203 208 189 179 181 188 189
47 39 27 18 5 9 351 342 336 328 320 307 282 241 209 186 178 183 185 214 270 322 338 1 96 121 130 149 177 215 193 186 184 182 188 197 204 197 198 210 191 186 194
59 30 29 46 20 14 5 358 355 356 346 325 305 278 212 132 151 179 187 204 349 337 336 13 111 130 140 159 158 145 139 150 154 159 183 200 205 207 206 216 213 172 202
73 13 19 64 56 33 19 9 2 3 350 323 302 269 216 144 138 156 178 196 219 323 30 91 133 142 145 164 164 153 174 198 160 171 212 223 215 197 173 182 186 107 0
106 57 52 53 49 46 34 20 21 18 11 8 1 347 157 135 128 150 179 195 198 203 168 123 128 128 270 279 162 199 229 215 164 204 219 203 159 155 168 170 169 162 193
67 75 77 73 67 64 63 41 29 47 39 29 16 21 35 64 40 45 63 89 181 211 155 144 164 174 217 224 202 203 198 161 176 235 210 196 195 194 193 172 165 162 186
49 52 60 87 84 100 120 101 58 59 56 53 46 43 54 49 43 53 64 61 60 66 109 200 225 223 223 224 214 211 203 209 213 215 221 218 220 223 211 191 186 195 211
52 47 46 44 42 80 144 144 130 82 66 57 46 44 44 39 49 60 68 68 58 61 78 277 272 281 335 18 81 122 238 223 199 203 223 235 233 237 228 216 207 209 220
77 84 33 26 4 8 23 48 95 120 103 76 55 46 49 53 56 58 43 24 46 40 40 44 46 47 48 38 33 26 6 346 275 257 258 253 244 242 246 242 227 220 224
54 53 35 15 357 12 39 66 81 93 98 99 103 74 52 49 42 15 350 7 50 50 42 42 39 37 34 28 24 16 5 350 331 305 290 281 269 259 259 257 251 243 234
102 78 7 337 340 28 54 82 90 94 96 93 78 58 9 300 5 26 22 25 40 48 44 41 36 33 33 28 20 14 8 3 358 350 337 327 313 297 285 286 280 264 240
146 136 191 301 1 46 50 69 83 87 91 86 77 54 14 15 39 49 47 40 39 44 48 42 37 29 24 12 5 3 3 354 347 339 330 323 317 305 295 287 283 278 267
151 147 166 70 61 54 34 61 87 90 100 102 104 84 26 29 44 49 44 40 37 41 36 35 36 33 23 11 7 6 359 348 343 335 324 318 313 302 293 281 272 263 256
201 123 122 107 102 103 35 75 95 96 100 103 98 83 60 51 49 50 46 39 38 40 36 39 41 32 23 20 21 20 10 358 345 335 324 313 305 296 289 283 278 273 263
170 126 118 121 130 138 120 104 110 109 106 102 100 91 79 72 66 60 53 47 51 50 45 42 41 32 27 22 20 17 7 348 334 322 317 310 303 295 289 283 281 281 282
142 124 123 128 142 141 128 121 114 106 102 98 93 85 77 73 70 66 60 57 63 59 51 42 35 28 20 20 17 5 352 345 339 329 314 307 309 311 307 298 293 289 282
131 127 124 115 110 112 108 111 116 113 101 93 89 85 80 77 72 67 62 58 62 54 45 36 38 38 22 11 4 359 356 352 348 344 328 310 318 323 327 319 310 300 288
Height
1481 1483 1483 1484 1485 1485 1486 1487 1487 1488 1487 1487 1487 1488 1488 1488 1489 1490 1491 1492 1494 1497 1500 1502 1505 1509 1513 1516 1520 1523 1526 1529 1530 1533 1534 1535 1536 1537 1538 1538 1538 1539 1539
1479 1481 1481 1483 1483 1484 1484 1485 1485 1486 1486 1487 1487 1487 1487 1487 1487 1488 1488 1489 1491 1493 1495 1497 1500 1504 1508 1512 1515 1518 1522 1524 1527 1529 1531 1532 1533 1534 1535 1536 1536 1536 1537
1477 1479 1480 1481 1482 1482 1483 1483 1484 1485 1485 1485 1486 1486 1486 1486 1487 1487 1487 1488 1489 1491 1492 1494 1496 1499 1503 1507 1511 1514 1518 1520 1523 1525 1527 1529 1530 1531 1531 1533 1533 1534 1533
1474 1477 1478 1480 1480 1481 1482 1482 1482 1483 1484 1484 1484 1485 1485 1486 1486 1487 1487 1488 1489 1490 1491 1493 1495 1498 1501 1504 1507 1511 1514 1516 1519 1521 1523 1524 1526 1527 1528 1529 1530 1531 1531
1472 1475 1477 1478 1479 1479 1480 1480 1480 1481 1482 1482 1483 1483 1484 1484 1485 1486 1487 1488 1489 1490 1491 1493 1494 1497 1499 1502 1504 1507 1510 1512 1514 1516 1518 1520 1521 1523 1523 1524 1526 1527 1528
1471 1473 1475 1477 1478 1477 1478 1478 1478 1478 1479 1480 1481 1482 1482 1483 1484 1485 1487 1488 1489 1490 1491 1492 1494 1495 1497 1499 1501 1504 1506 1508 1510 1512 1513 1515 1515 1517 1519 1520 1522 1523 1523
1471 1473 1474 1474 1475 1475 1475 1475 1475 1476 1477 1478 1478 1479 1480 1481 1482 1484 1485 1487 1488 1489 1490 1491 1492 1493 1495 1496 1498 1500 1502 1503 1506 1507 1508 1509 1510 1512 1514 1515 1516 1517 1518
1469 1470 1470 1471 1471 1471 1472 1472 1472 1472 1473 1474 1475 1476 1477 1478 1480 1482 1484 1485 1486 1487 1489 1490 1491 1492 1492 1493 1494 1496 1497 1499 1500 1501 1503 1504 1505 1507 1507 1509 1510 1513 1515
1467 1468 1467 1467 1467 1467 1467 1467 1468 1469 1469 1470 1472 1473 1474 1476 1477 1479 1481 1483 1484 1485 1486 1488 1488 1489 1489 1490 1491 1492 1494 1495 1496 1497 1498 1498 1499 1501 1503 1504 1505 1507 1509
1467 1466 1465 1464 1463 1463 1463 1463 1463 1464 1465 1466 1468 1469 1471 1472 1474 1476 1478 1479 1481 1483 1484 1484 1485 1486 1486 1487 1488 1489 1490 1491 1492 1493 1493 1494 1495 1496 1497 1498 1500 1502 1503
1467 1466 1465 1463 1462 1460 1459 1459 1459 1460 1461 1462 1464 1466 1468 1469 1471 1473 1475 1476 1478 1479 1480 1481 1481 1482 1483 1484 1484 1485 1487 1488 1489 1489 1490 1490 1491 1491 1492 1494 1495 1497 1499
1469 1467 1466 1464 1462 1460 1458 1457 1457 1457 1458 1459 1461 1463 1464 1465 1467 1469 1471 1473 1475 1476 1477 1478 1478 1479 1480 1480 1481 1482 1484 1485 1486 1486 1487 1487 1487 1488 1488 1489 1490 1492 1494
1470 1469 1467 1465 1463 1461 1459 1458 1457 1457 1458 1458 1459 1461 1462 1463 1464 1466 1468 1470 1472 1473 1474 1475 1476 1476 1477 1477 1478 1480 1481 1482 1483 1483 1484 1484 1484 1484 1485 1485 1486 1487 1489
1472 1470 1468 1466 1464 1462 1461 1460 1459 1459 1459 1459 1460 1461 1462 1463 1463 1464 1466 1468 1470 1471 1472 1473 1473 1474 1474 1475 1476 1477 1478 1479 1480 1481 1481 1482 1482 1482 1482 1482 1483 1484 1485
1473 1471 1470 1468 1466 1465 1464 1463 1462 1461 1461 1461 1462 1462 1463 1463 1464 1465 1466 1467 1468 1469 1469 1470 1471 1472 1472 1473 1474 1475 1476 1477 1478 1478 1479 1479 1479 1479 1480 1480 1480 1481 1482
1474 1473 1471 1470 1469 1468 1467 1466 1465 1465 1464 1464 1464 1463 1463 1463 1464 1464 1465 1466 1467 1467 1468 1469 1470 1471 1472 1473 1473 1474 1475 1476 1476 1476 1477 1477 1477 1477 1477 1478 1478 1478 1478
1475 1474 1473 1472 1471 1470 1469 1468 1468 1467 1466 1465 1465 1464 1464 1464 1464 1464 1464 1465 1466 1467 1467 1468 1469 1470 1471 1472 1472 1473 1474 1474 1474 1475 1475 1475 1475 1475 1475 1475 1475 1475 1475
1476 1474 1473 1473 1472 1471 1471 1470 1469 1468 1467 1466 1466 1465 1464 1464 1464 1464 1465 1465 1466 1467 1467 1468 1469 1470 1470 1471 1471 1472 1472 1472 1472 1472 1472 1472 1473 1472 1472 1472 1472 1472 1471
1476 1475 1474 1473 1473 1472 1472 1471 1470 1469 1469 1468 1467 1466 1466 1466 1466 1466 1466 1467 1467 1468 1468 1469 1469 1470 1470 1470 1470 1470 1471 1471 1471 1470 1470 1470 1470 1470 1469 1469 1468 1468 1468
1475 1475 1474 1474 1474 1474 1473 1472 1472 1471 1471 1470 1469 1469 1468 1468 1468 1468 1468 1469 1469 1469 1469 1469 1469 1470 1469 1469 1469 1469 1469 1469 1468 1468 1468 1467 1467 1466 1466 1465 1465 1464 1463
1475 1475 1474 1474 1475 1474 1474 1474 1473 1473 1472 1472 1472 1471 1471 1470 1470 1470 1470 1470 1470 1470 1470 1470 1470 1470 1469 1469 1468 1468 1467 1466 1466 1465 1464 1464 1463 1462 1461 1461 1460 1459 1458
1476 1475 1475 1475 1475 1475 1475 1475 1474 1474 1474 1474 1474 1473 1473 1473 1472 1472 1472 1472 1472 1472 1471 1471 1470 1470 1469 1468 1467 1466 1465 1464 1463 1462 1461 1460 1459 1458 1457 1456 1455 1454 1453
1475 1475 1475 1475 1475 1475 1475 1475 1475 1475 1475 1475 1475 1475 1475 1475 1475 1474 1474 1473 1473 1472 1472 1471 1470 1469 1468 1467 1466 1465 1463 1462 1461 1459 1458 1456 1455 1454 1452 1451 1450 1449 1448
1474 1474 1474 1475 1475 1475 1476 1476 1476 1476 1476 1477 1477 1477 1477 1477 1476 1476 1475 1474 1473 1472 1471 1470 1469 1468 1467 1465 1464 1463 1461 1460 1458 1456 1455 1453 1451 1450 1448 1447 1446 1445 1443
1473 1473 1474 1474 1475 1476 1476 1477 1477 1477 1477 1478 1478 1478 1478 1477 1477 1476 1475 1474 1473 1472 1471 1469 1468 1466 1465 1463 1462 1460 1458 1457 1455 1453 1451 1450 1448 1447 1445 1444 1442 1441 1439
1472 1473 1473 1474 1475 1476 1476 1477 1477 1478 1478 1478 1478 1478 1478 1477 1477 1476 1475 1474 1472 1471 1470 1468 1467 1465 1464 1462 1460 1458 1456 1454 1452 1450 1449 1447 1446 1445 1443 1441 1440 1438 1437